,,Stat6,,Stat2,,Stat8,,Stat9,,Stat10,,Wind1,,Wind1,
time,status,PA1M_AVG,status,PR1M_SUM,status,RH1M_AVG,status,SR1M_AVG,status,TA1M_AVG,status,W1dAve1m,status,W1sAve1m,
2004-06-26, 00:00:00,VALID,918.903,VALID,0,VALID,100,VALID,-0.0169808,VALID,18.6349,VALID,121,VALID,0.740916,
2004-06-26, 00:01:00,VALID,918.882,VALID,0,VALID,100,VALID,-0.0169808,VALID,18.6446,VALID,113,VALID,0.70846,
2004-06-26, 00:02:00,VALID,918.877,VALID,0,VALID,100,VALID,0,VALID,18.6344,VALID,90,VALID,0.454985,
2004-06-26, 00:03:00,VALID,918.853,VALID,0,VALID,100,VALID,0,VALID,18.6351,VALID,89,VALID,0.0930398,
2004-06-26, 00:04:00,VALID,918.83,VALID,0,VALID,100,VALID,-0.0169808,VALID,18.6575,VALID,85,VALID,0.274891,
2004-06-26, 00:05:00,VALID,918.813,VALID,0,VALID,100,VALID,-0.0169808,VALID,18.6764,VALID,73,VALID,0.30957,
2004-06-26, 00:06:00,VALID,918.79,VALID,0,VALID,100,VALID,-0.0509425,VALID,18.7228,VALID,73,VALID,0.219131,
2004-06-26, 00:07:00,VALID,918.793,VALID,0,VALID,100,VALID,-0.0509425,VALID,18.7285,VALID,73,VALID,0.397017,
2004-06-26, 00:08:00,VALID,918.785,VALID,0,VALID,100,VALID,-0.0169808,VALID,18.7225,VALID,73,VALID,0.225229,
2004-06-26, 00:09:00,VALID,918.78,VALID,0,VALID,100,VALID,-0.0339617,VALID,18.7354,VALID,65,VALID,0.476953,
2004-06-26, 00:10:00,VALID,918.791,VALID,0,VALID,100,VALID,-0.0339617,VALID,18.7387,VALID,64,VALID,0.429315,
2004-06-26, 00:11:00,VALID,918.783,VALID,0,VALID,100,VALID,-0.0679233,VALID,18.729,VALID,64,VALID,0.362165,
2004-06-26, 00:12:00,VALID,918.796,VALID,0,VALID,100,VALID,-0.0339617,VALID,18.7389,VALID,64,VALID,0.348514,
2004-06-26, 00:13:00,VALID,918.793,VALID,0,VALID,100,VALID,-0.0509425,VALID,18.6734,VALID,77,VALID,0.573611,
2004-06-26, 00:14:00,VALID,918.794,VALID,0,VALID,100,VALID,-0.0679233,VALID,18.6446,VALID,115,VALID,0.642578,
2004-06-26, 00:15:00,VALID,918.8,VALID,0,VALID,100,VALID,-0.0169808,VALID,18.6418,VALID,116,VALID,0.576853,
2004-06-26, 00:16:00,VALID,918.804,VALID,0,VALID,100,VALID,-0.0509425,VALID,18.6386,VALID,121,VALID,0.841211,
2004-06-26, 00:17:00,VALID,918.804,VALID,0,VALID,100,VALID,-0.0509425,VALID,18.6414,VALID,126,VALID,0.936899,
2004-06-26, 00:18:00,VALID,918.794,VALID,0,VALID,100,VALID,-0.0509425,VALID,18.6709,VALID,126,VALID,0.840661,
2004-06-26, 00:19:00,VALID,918.773,VALID,0,VALID,100,VALID,-0.0509425,VALID,18.661,VALID,127,VALID,0.949591,
2004-06-26, 00:20:00,VALID,918.773,VALID,0,VALID,100,VALID,-0.0169808,VALID,18.651,VALID,117,VALID,0.94779,
2004-06-26, 00:21:00,VALID,918.756,VALID,0,VALID,100,VALID,0.0509425,VALID,18.6632,VALID,107,VALID,1.23152,
2004-06-26, 00:22:00,VALID,918.753,VALID,0,VALID,100,VALID,0.0339617,VALID,18.6566,VALID,124,VALID,1.26152,
2004-06-26, 00:23:00,VALID,918.747,VALID,0,VALID,100,VALID,0.0849042,VALID,18.6826,VALID,132,VALID,1.09684,
2004-06-26, 00:24:00,VALID,918.74,VALID,0,VALID,100,VALID,0.0509425,VALID,18.6886,VALID,120,VALID,1.09013,
2004-06-26, 00:25:00,VALID,918.752,VALID,0,VALID,100,VALID,0.0679233,VALID,18.7013,VALID,122,VALID,0.604581,
2004-06-26, 00:26:00,VALID,918.734,VALID,0,VALID,100,VALID,0.0679233,VALID,18.7375,VALID,122,VALID,0.251116,
2004-06-26, 00:27:00,VALID,918.714,VALID,0,VALID,100,VALID,0.0679233,VALID,18.7601,VALID,122,VALID,0.0421464,
2004-06-26, 00:28:00,VALID,918.71,VALID,0,VALID,100,VALID,0.0509425,VALID,18.8085,VALID,122,VALID,0.0220486,
2004-06-26, 00:29:00,VALID,918.678,VALID,0,VALID,100,VALID,0.0339617,VALID,18.8274,VALID,122,VALID,0.141814,
2004-06-26, 00:30:00,VALID,918.649,VALID,0,VALID,100,VALID,0.0339617,VALID,18.8405,VALID,122,VALID,0.137962,
2004-06-26, 00:31:00,VALID,918.638,VALID,0,VALID,100,VALID,0.0509425,VALID,18.8368,VALID,58,VALID,0.285352,
2004-06-26, 00:32:00,VALID,918.606,VALID,0,VALID,100,VALID,0.0339617,VALID,18.8731,VALID,27,VALID,0.483574,
2004-06-26, 00:33:00,VALID,918.581,VALID,0,VALID,100,VALID,0.0169808,VALID,18.889,VALID,27,VALID,0.415838,
2004-06-26, 00:34:00,VALID,918.549,VALID,0,VALID,100,VALID,0.0679233,VALID,18.9277,VALID,27,VALID,0.366806,
2004-06-26, 00:35:00,VALID,918.511,VALID,0,VALID,100,VALID,0.0509425,VALID,18.9143,VALID,27,VALID,0.333079,
2004-06-26, 00:36:00,VALID,918.473,VALID,0,VALID,100,VALID,0.0169808,VALID,18.9436,VALID,27,VALID,0.450893,
2004-06-26, 00:37:00,VALID,918.437,VALID,0,VALID,100,VALID,0.0339617,VALID,18.9602,VALID,26,VALID,0.426054,
2004-06-26, 00:38:00,VALID,918.429,VALID,0,VALID,100,VALID,0.0339617,VALID,18.9498,VALID,24,VALID,0.463224,
2004-06-26, 00:39:00,VALID,918.413,VALID,0,VALID,100,VALID,0.0509425,VALID,18.9371,VALID,24,VALID,0.370916,
2004-06-26, 00:40:00,VALID,918.391,VALID,0,VALID,100,VALID,0.0849042,VALID,18.9401,VALID,20,VALID,0.403764,
2004-06-26, 00:41:00,VALID,918.37,VALID,0,VALID,100,VALID,0.0849042,VALID,18.9498,VALID,15,VALID,0.638263,
2004-06-26, 00:42:00,VALID,918.34,VALID,0,VALID,100,VALID,0.0169808,VALID,18.9364,VALID,15,VALID,0.627096,
2004-06-26, 00:43:00,VALID,918.331,VALID,0,VALID,100,VALID,0.0169808,VALID,18.9141,VALID,15,VALID,0.404447,
2004-06-26, 00:44:00,VALID,918.301,VALID,0,VALID,100,VALID,0.0339617,VALID,18.8919,VALID,15,VALID,0.339311,
2004-06-26, 00:45:00,VALID,918.285,VALID,0,VALID,100,VALID,0.0169808,VALID,18.8887,VALID,12,VALID,0.248047,
2004-06-26, 00:46:00,VALID,918.239,VALID,0,VALID,100,VALID,0.0679233,VALID,18.8693,VALID,9,VALID,0.491997,
2004-06-26, 00:47:00,VALID,918.212,VALID,0,VALID,100,VALID,0.0339617,VALID,18.8567,VALID,355,VALID,0.519245,
2004-06-26, 00:48:00,VALID,918.188,VALID,0.2,VALID,100,VALID,0.0169808,VALID,18.8465,VALID,304,VALID,0.518821,
2004-06-26, 00:49:00,VALID,918.137,VALID,0,VALID,100,VALID,0.0679233,VALID,18.846,VALID,301,VALID,0.329985,
2004-06-26, 00:50:00,VALID,918.093,VALID,0,VALID,100,VALID,0.0679233,VALID,18.8334,VALID,301,VALID,0.380022,
2004-06-26, 00:51:00,VALID,918.039,VALID,0,VALID,100,VALID,0.0169808,VALID,18.8053,VALID,301,VALID,0.460574,
2004-06-26, 00:52:00,VALID,917.998,VALID,0,VALID,100,VALID,-0.0509425,VALID,18.8092,VALID,291,VALID,0.498402,
2004-06-26, 00:53:00,VALID,917.977,VALID,0,VALID,100,VALID,0,VALID,18.7861,VALID,279,VALID,0.668423,
2004-06-26, 00:54:00,VALID,917.952,VALID,0,VALID,100,VALID,-0.0339617,VALID,18.767,VALID,279,VALID,0.564406,
2004-06-26, 00:55:00,VALID,917.929,VALID,0,VALID,100,VALID,-0.0169808,VALID,18.767,VALID,279,VALID,0.357955,
2004-06-26, 00:56:00,VALID,917.893,VALID,0,VALID,100,VALID,-0.0169808,VALID,18.7709,VALID,284,VALID,0.490327,
2004-06-26, 00:57:00,VALID,917.881,VALID,0,VALID,100,VALID,-0.0339617,VALID,18.7672,VALID,313,VALID,0.407493,
2004-06-26, 00:58:00,VALID,917.862,VALID,0,VALID,100,VALID,-0.0339617,VALID,18.7603,VALID,332,VALID,0.24707,
2004-06-26, 00:59:00,VALID,917.86,VALID,0,VALID,100,VALID,-0.0509425,VALID,18.7509,VALID,331,VALID,0.160417,
2004-06-26, 01:00:00,VALID,917.843,VALID,0,VALID,100,VALID,-0.0849042,VALID,18.7513,VALID,331,VALID,0.185082,
2004-06-26, 01:01:00,VALID,917.829,VALID,0,VALID,100,VALID,-0.0339617,VALID,18.7571,VALID,332,VALID,0.239281,
2004-06-26, 01:02:00,VALID,917.814,VALID,0,VALID,100,VALID,-0.0169808,VALID,18.7898,VALID,357,VALID,0.730114,
2004-06-26, 01:03:00,VALID,917.809,VALID,0,VALID,100,VALID,0,VALID,18.803,VALID,9,VALID,0.879084,
2004-06-26, 01:04:00,VALID,917.823,VALID,0,VALID,100,VALID,-0.0339617,VALID,18.8509,VALID,3,VALID,0.300595,
2004-06-26, 01:05:00,VALID,917.813,VALID,0,VALID,100,VALID,-0.0509425,VALID,18.8964,VALID,3,VALID,0.108803,
2004-06-26, 01:06:00,VALID,917.815,VALID,0,VALID,100,VALID,-0.0679233,VALID,18.9542,VALID,6,VALID,0.640625,
2004-06-26, 01:07:00,VALID,917.789,VALID,0,VALID,100,VALID,-0.0169808,VALID,18.9763,VALID,15,VALID,0.880766,
2004-06-26, 01:08:00,VALID,917.78,VALID,0,VALID,100,VALID,0,VALID,18.9962,VALID,14,VALID,0.475868,
2004-06-26, 01:09:00,VALID,917.763,VALID,0,VALID,100,VALID,0,VALID,19.0156,VALID,19,VALID,0.801758,
2004-06-26, 01:10:00,VALID,917.758,VALID,0,VALID,100,VALID,0,VALID,19.0635,VALID,13,VALID,0.805778,
2004-06-26, 01:11:00,VALID,917.739,VALID,0,VALID,100,VALID,-0.0169808,VALID,19.1285,VALID,33,VALID,0.910334,
2004-06-26, 01:12:00,VALID,917.737,VALID,0,VALID,100,VALID,0,VALID,19.1705,VALID,17,VALID,1.08703,
2004-06-26, 01:13:00,VALID,917.731,VALID,0,VALID,100,VALID,-0.0169808,VALID,19.209,VALID,31,VALID,1.18288,
2004-06-26, 01:14:00,VALID,917.711,VALID,0,VALID,100,VALID,0,VALID,19.1954,VALID,44,VALID,0.881836,
2004-06-26, 01:15:00,VALID,917.732,VALID,0,VALID,100,VALID,0,VALID,19.2378,VALID,13,VALID,0.614462,
2004-06-26, 01:16:00,VALID,917.736,VALID,0,VALID,100,VALID,-0.0169808,VALID,19.2475,VALID,24,VALID,0.97532,
2004-06-26, 01:17:00,VALID,917.728,VALID,0,VALID,100,VALID,0.0169808,VALID,19.2795,VALID,37,VALID,0.780342,
2004-06-26, 01:18:00,VALID,917.713,VALID,0,VALID,100,VALID,0,VALID,19.3252,VALID,31,VALID,0.970117,
2004-06-26, 01:19:00,VALID,917.703,VALID,0,VALID,100,VALID,0,VALID,19.3702,VALID,36,VALID,1.13654,
2004-06-26, 01:20:00,VALID,917.702,VALID,0,VALID,100,VALID,0,VALID,19.3866,VALID,31,VALID,0.591493,
2004-06-26, 01:21:00,VALID,917.693,VALID,0,VALID,100,VALID,0,VALID,19.4022,VALID,43,VALID,0.623094,
2004-06-26, 01:22:00,VALID,917.692,VALID,0,VALID,100,VALID,0,VALID,19.4055,VALID,49,VALID,0.0821265,
2004-06-26, 01:23:00,VALID,917.681,VALID,0.2,VALID,100,VALID,0,VALID,19.4092,VALID,49,VALID,0.153942,
2004-06-26, 01:24:00,VALID,917.681,VALID,0,VALID,100,VALID,-0.0169808,VALID,19.4251,VALID,49,VALID,0,
2004-06-26, 01:25:00,VALID,917.653,VALID,0,VALID,100,VALID,-0.0339617,VALID,19.4444,VALID,47,VALID,0.0985577,
2004-06-26, 01:26:00,VALID,917.668,VALID,0,VALID,100,VALID,0,VALID,19.4827,VALID,37,VALID,0.224657,
2004-06-26, 01:27:00,VALID,917.648,VALID,0,VALID,100,VALID,0.0339617,VALID,19.4954,VALID,35,VALID,0.460428,
2004-06-26, 01:28:00,VALID,917.653,VALID,0,VALID,100,VALID,0,VALID,19.4991,VALID,6,VALID,0.80785,
2004-06-26, 01:29:00,VALID,917.656,VALID,0,VALID,100,VALID,0,VALID,19.4924,VALID,10,VALID,0.950068,
2004-06-26, 01:30:00,VALID,917.65,VALID,0,VALID,100,VALID,0,VALID,19.505,VALID,22,VALID,0.702943,
2004-06-26, 01:31:00,VALID,917.663,VALID,0,VALID,100,VALID,0,VALID,19.5214,VALID,27,VALID,0.310547,
2004-06-26, 01:32:00,VALID,917.665,VALID,0,VALID,100,VALID,-0.0339617,VALID,19.518,VALID,20,VALID,0.43471,
2004-06-26, 01:33:00,VALID,917.654,VALID,0,VALID,100,VALID,-0.0169808,VALID,19.5152,VALID,19,VALID,0.296701,
2004-06-26, 01:34:00,VALID,917.652,VALID,0,VALID,100,VALID,-0.0169808,VALID,19.5048,VALID,20,VALID,0.308685,
2004-06-26, 01:35:00,VALID,917.642,VALID,0,VALID,100,VALID,-0.0169808,VALID,19.4894,VALID,46,VALID,0.584302,
2004-06-26, 01:36:00,VALID,917.643,VALID,0,VALID,100,VALID,0,VALID,19.4601,VALID,58,VALID,0.659961,
2004-06-26, 01:37:00,VALID,917.656,VALID,0,VALID,100,VALID,0,VALID,19.4474,VALID,56,VALID,0.858594,
2004-06-26, 01:38:00,VALID,917.667,VALID,0,VALID,100,VALID,0,VALID,19.4442,VALID,45,VALID,0.551136,
2004-06-26, 01:39:00,VALID,917.671,VALID,0,VALID,100,VALID,0,VALID,19.4343,VALID,42,VALID,0.842797,
2004-06-26, 01:40:00,VALID,917.674,VALID,0.2,VALID,100,VALID,0,VALID,19.441,VALID,46,VALID,1.11701,
2004-06-26, 01:41:00,VALID,917.677,VALID,0,VALID,100,VALID,0,VALID,19.4243,VALID,55,VALID,1.48594,
2004-06-26, 01:42:00,VALID,917.682,VALID,0,VALID,100,VALID,0,VALID,19.3757,VALID,67,VALID,1.24638,
2004-06-26, 01:43:00,VALID,917.682,VALID,0,VALID,100,VALID,0,VALID,19.3243,VALID,78,VALID,1.22898,
2004-06-26, 01:44:00,VALID,917.678,VALID,0,VALID,100,VALID,0,VALID,19.2825,VALID,76,VALID,1.07832,
2004-06-26, 01:45:00,VALID,917.674,VALID,0,VALID,100,VALID,0,VALID,19.208,VALID,90,VALID,0.919457,
2004-06-26, 01:46:00,VALID,917.664,VALID,0,VALID,100,VALID,0,VALID,19.1596,VALID,104,VALID,0.796131,
2004-06-26, 01:47:00,VALID,917.649,VALID,0,VALID,100,VALID,0,VALID,19.1308,VALID,120,VALID,0.707667,
2004-06-26, 01:48:00,VALID,917.638,VALID,0,VALID,100,VALID,0,VALID,19.0983,VALID,105,VALID,0.634868,
2004-06-26, 01:49:00,VALID,917.631,VALID,0,VALID,100,VALID,0,VALID,19.0854,VALID,73,VALID,0.826637,
2004-06-26, 01:50:00,VALID,917.618,VALID,0,VALID,100,VALID,0,VALID,19.0926,VALID,88,VALID,0.946584,
2004-06-26, 01:51:00,VALID,917.611,VALID,0,VALID,100,VALID,0,VALID,19.099,VALID,77,VALID,0.974888,
2004-06-26, 01:52:00,VALID,917.621,VALID,0,VALID,100,VALID,-0.0169808,VALID,19.1018,VALID,90,VALID,0.8367,
2004-06-26, 01:53:00,VALID,917.63,VALID,0,VALID,100,VALID,0,VALID,19.0955,VALID,113,VALID,0.942187,
2004-06-26, 01:54:00,VALID,917.638,VALID,0,VALID,100,VALID,0,VALID,19.0886,VALID,120,VALID,0.716406,
2004-06-26, 01:55:00,VALID,917.642,VALID,0,VALID,100,VALID,-0.0169808,VALID,19.0926,VALID,118,VALID,0.827035,
2004-06-26, 01:56:00,VALID,917.633,VALID,0,VALID,100,VALID,-0.0169808,VALID,19.0953,VALID,126,VALID,0.744234,
2004-06-26, 01:57:00,VALID,917.611,VALID,0,VALID,100,VALID,0,VALID,19.0951,VALID,126,VALID,0.773785,
2004-06-26, 01:58:00,VALID,917.572,VALID,0,VALID,100,VALID,0,VALID,19.105,VALID,95,VALID,0.841704,
2004-06-26, 01:59:00,VALID,917.55,VALID,0,VALID,100,VALID,0,VALID,19.1241,VALID,46,VALID,0.733817,
2004-06-26, 02:00:00,VALID,917.539,VALID,0,VALID,100,VALID,-0.0169808,VALID,19.1638,VALID,33,VALID,0.698785,
2004-06-26, 02:01:00,VALID,917.535,VALID,0,VALID,100,VALID,-0.0169808,VALID,19.1767,VALID,42,VALID,0.490371,
2004-06-26, 02:02:00,VALID,917.54,VALID,0,VALID,100,VALID,-0.0169808,VALID,19.176,VALID,45,VALID,0.367188,
2004-06-26, 02:03:00,VALID,917.539,VALID,0,VALID,100,VALID,0,VALID,19.2051,VALID,44,VALID,0.454459,
2004-06-26, 02:04:00,VALID,917.509,VALID,0,VALID,100,VALID,0,VALID,19.1884,VALID,248,VALID,0.572674,
2004-06-26, 02:05:00,VALID,917.475,VALID,0,VALID,100,VALID,0,VALID,19.1628,VALID,248,VALID,0.227242,
2004-06-26, 02:06:00,VALID,917.418,VALID,0,VALID,100,VALID,-0.0509425,VALID,19.1767,VALID,230,VALID,0.365234,
2004-06-26, 02:07:00,VALID,917.384,VALID,0,VALID,100,VALID,-0.0339617,VALID,19.1822,VALID,214,VALID,0.462358,
2004-06-26, 02:08:00,VALID,917.353,VALID,0,VALID,100,VALID,-0.0339617,VALID,19.1919,VALID,213,VALID,0.0344122,
2004-06-26, 02:09:00,VALID,917.345,VALID,0,VALID,100,VALID,-0.0169808,VALID,19.2242,VALID,195,VALID,0.256177,
2004-06-26, 02:10:00,VALID,917.338,VALID,0,VALID,100,VALID,-0.0169808,VALID,19.2532,VALID,135,VALID,0.351004,
2004-06-26, 02:11:00,VALID,917.33,VALID,0,VALID,100,VALID,0,VALID,19.3081,VALID,97,VALID,0.475419,
2004-06-26, 02:12:00,VALID,917.33,VALID,0,VALID,100,VALID,0,VALID,19.3406,VALID,40,VALID,0.438227,
2004-06-26, 02:13:00,VALID,917.329,VALID,0,VALID,100,VALID,-0.0339617,VALID,19.3498,VALID,36,VALID,0.421165,
2004-06-26, 02:14:00,VALID,917.329,VALID,0,VALID,100,VALID,0,VALID,19.3794,VALID,36,VALID,0.456659,
2004-06-26, 02:15:00,VALID,917.337,VALID,0,VALID,100,VALID,-0.0509425,VALID,19.3893,VALID,36,VALID,0.320833,
2004-06-26, 02:16:00,VALID,917.334,VALID,0,VALID,100,VALID,0.0169808,VALID,19.4052,VALID,36,VALID,0.336509,
2004-06-26, 02:17:00,VALID,917.332,VALID,0,VALID,100,VALID,-0.0169808,VALID,19.4075,VALID,34,VALID,0.244318,
2004-06-26, 02:18:00,VALID,917.317,VALID,0,VALID,100,VALID,-0.0169808,VALID,19.3824,VALID,14,VALID,0.766741,
2004-06-26, 02:19:00,VALID,917.324,VALID,0,VALID,100,VALID,0,VALID,19.3431,VALID,13,VALID,0.271341,
2004-06-26, 02:20:00,VALID,917.334,VALID,0.2,VALID,100,VALID,-0.0169808,VALID,19.3372,VALID,13,VALID,0.0399503,
2004-06-26, 02:21:00,VALID,917.316,VALID,0,VALID,100,VALID,0,VALID,19.3637,VALID,13,VALID,0,
2004-06-26, 02:22:00,VALID,917.314,VALID,0.2,VALID,100,VALID,0,VALID,19.3727,VALID,13,VALID,0.160511,
2004-06-26, 02:23:00,VALID,917.297,VALID,0,VALID,100,VALID,0,VALID,19.3757,VALID,13,VALID,0.100675,
2004-06-26, 02:24:00,VALID,917.279,VALID,0,VALID,100,VALID,-0.0169808,VALID,19.3829,VALID,13,VALID,0.0163517,
2004-06-26, 02:25:00,VALID,917.27,VALID,0.2,VALID,100,VALID,0,VALID,19.3724,VALID,13,VALID,0.237995,
2004-06-26, 02:26:00,VALID,917.258,VALID,0,VALID,100,VALID,0,VALID,19.3757,VALID,13,VALID,0,
2004-06-26, 02:27:00,VALID,917.263,VALID,0.2,VALID,100,VALID,-0.0169808,VALID,19.3849,VALID,13,VALID,0.204153,
2004-06-26, 02:28:00,VALID,917.251,VALID,0.2,VALID,100,VALID,-0.0339617,VALID,19.4015,VALID,13,VALID,0.546875,
2004-06-26, 02:29:00,VALID,917.258,VALID,0.2,VALID,100,VALID,-0.0169808,VALID,19.4241,VALID,13,VALID,1.07635,
2004-06-26, 02:30:00,VALID,917.277,VALID,0,VALID,100,VALID,0,VALID,19.4405,VALID,12,VALID,0.894436,
2004-06-26, 02:31:00,VALID,917.262,VALID,0.2,VALID,100,VALID,-0.0509425,VALID,19.4633,VALID,288,VALID,0.292614,
2004-06-26, 02:32:00,VALID,917.252,VALID,0,VALID,100,VALID,0,VALID,19.4986,VALID,223,VALID,0.50327,
2004-06-26, 02:33:00,VALID,917.246,VALID,0,VALID,100,VALID,-0.0509425,VALID,19.5825,VALID,14,VALID,1.1994,
2004-06-26, 02:34:00,VALID,917.248,VALID,0,VALID,100,VALID,-0.0169808,VALID,19.6153,VALID,27,VALID,0.840116,
2004-06-26, 02:35:00,VALID,917.256,VALID,0,VALID,100,VALID,-0.0169808,VALID,19.631,VALID,9,VALID,0.60774,
2004-06-26, 02:36:00,VALID,917.26,VALID,0.2,VALID,100,VALID,-0.0509425,VALID,19.6766,VALID,1,VALID,0.208576,
2004-06-26, 02:37:00,VALID,917.259,VALID,0,VALID,100,VALID,-0.0169808,VALID,19.7025,VALID,1,VALID,0.0203125,
2004-06-26, 02:38:00,VALID,917.275,VALID,0,VALID,100,VALID,-0.0509425,VALID,19.7149,VALID,1,VALID,0.377431,
2004-06-26, 02:39:00,VALID,917.295,VALID,0,VALID,100,VALID,-0.0339617,VALID,19.7112,VALID,1,VALID,0.424419,
2004-06-26, 02:40:00,VALID,917.3,VALID,0.2,VALID,100,VALID,-0.0509425,VALID,19.7214,VALID,353,VALID,0.685268,
2004-06-26, 02:41:00,VALID,917.306,VALID,0,VALID,100,VALID,-0.0169808,VALID,19.7022,VALID,335,VALID,0.87843,
2004-06-26, 02:42:00,VALID,917.312,VALID,0.2,VALID,100,VALID,-0.0169808,VALID,19.663,VALID,341,VALID,0.375186,
2004-06-26, 02:43:00,VALID,917.324,VALID,0.2,VALID,100,VALID,-0.0169808,VALID,19.6563,VALID,236,VALID,0.692383,
2004-06-26, 02:44:00,VALID,917.346,VALID,0.8,VALID,100,VALID,-0.0169808,VALID,19.6143,VALID,208,VALID,0.52689,
2004-06-26, 02:45:00,VALID,917.351,VALID,0.6,VALID,100,VALID,0,VALID,19.5728,VALID,214,VALID,0.434375,
2004-06-26, 02:46:00,VALID,917.351,VALID,0.4,VALID,100,VALID,-0.0169808,VALID,19.5311,VALID,221,VALID,0.309896,
2004-06-26, 02:47:00,VALID,917.395,VALID,0.6,VALID,100,VALID,-0.0169808,VALID,19.5147,VALID,278,VALID,0.430233,
2004-06-26, 02:48:00,VALID,917.423,VALID,0.4,VALID,100,VALID,-0.0339617,VALID,19.5207,VALID,348,VALID,0.337462,
2004-06-26, 02:49:00,VALID,917.424,VALID,0.6,VALID,100,VALID,-0.0169808,VALID,19.5403,VALID,20,VALID,0.69215,
2004-06-26, 02:50:00,VALID,917.43,VALID,0.8,VALID,100,VALID,-0.0169808,VALID,19.5661,VALID,43,VALID,0.233373,
2004-06-26, 02:51:00,VALID,917.436,VALID,0.4,VALID,100,VALID,-0.0339617,VALID,19.5537,VALID,197,VALID,0.904916,
2004-06-26, 02:52:00,VALID,917.424,VALID,1,VALID,100,VALID,-0.0169808,VALID,19.5018,VALID,260,VALID,0.928125,
2004-06-26, 02:53:00,VALID,917.429,VALID,0.2,VALID,100,VALID,-0.0339617,VALID,19.4792,VALID,2,VALID,1.09121,
2004-06-26, 02:54:00,VALID,917.436,VALID,0.2,VALID,100,VALID,-0.0169808,VALID,19.4951,VALID,336,VALID,1.04573,
2004-06-26, 02:55:00,VALID,917.446,VALID,0.2,VALID,100,VALID,-0.0509425,VALID,19.5274,VALID,241,VALID,0.68192,
2004-06-26, 02:56:00,VALID,917.482,VALID,0.6,VALID,100,VALID,-0.0169808,VALID,19.5468,VALID,269,VALID,0.665153,
2004-06-26, 02:57:00,VALID,917.461,VALID,1.2,VALID,100,VALID,-0.0339617,VALID,19.5304,VALID,229,VALID,1.48251,
2004-06-26, 02:58:00,VALID,917.424,VALID,0.8,VALID,100,VALID,-0.0339617,VALID,19.5018,VALID,202,VALID,1.07603,
2004-06-26, 02:59:00,VALID,917.406,VALID,0.2,VALID,100,VALID,-0.0169808,VALID,19.508,VALID,220,VALID,0.823219,
2004-06-26, 03:00:00,VALID,917.401,VALID,0.2,VALID,100,VALID,-0.0169808,VALID,19.515,VALID,210,VALID,0.502486,
2004-06-26, 03:01:00,VALID,917.399,VALID,0.4,VALID,100,VALID,-0.0169808,VALID,19.5048,VALID,182,VALID,0.532885,
2004-06-26, 03:02:00,VALID,917.381,VALID,0.2,VALID,100,VALID,-0.0169808,VALID,19.5018,VALID,225,VALID,1.01799,
2004-06-26, 03:03:00,VALID,917.37,VALID,0,VALID,100,VALID,-0.0509425,VALID,19.4847,VALID,273,VALID,0.532522,
2004-06-26, 03:04:00,VALID,917.367,VALID,0.2,VALID,100,VALID,-0.0339617,VALID,19.4817,VALID,234,VALID,0.948847,
2004-06-26, 03:05:00,VALID,917.359,VALID,0,VALID,100,VALID,0,VALID,19.4499,VALID,242,VALID,0.983854,
2004-06-26, 03:06:00,VALID,917.357,VALID,0.2,VALID,100,VALID,-0.0679233,VALID,19.438,VALID,231,VALID,0.875545,
2004-06-26, 03:07:00,VALID,917.33,VALID,0,VALID,100,VALID,-0.0509425,VALID,19.432,VALID,247,VALID,1.5089,
2004-06-26, 03:08:00,VALID,917.298,VALID,0,VALID,100,VALID,-0.0849042,VALID,19.4221,VALID,227,VALID,1.0774,
2004-06-26, 03:09:00,VALID,917.259,VALID,0,VALID,100,VALID,-0.101885,VALID,19.4221,VALID,230,VALID,0.495821,
2004-06-26, 03:10:00,VALID,917.255,VALID,0.2,VALID,100,VALID,-0.0849042,VALID,19.4221,VALID,240,VALID,0.574219,
2004-06-26, 03:11:00,VALID,917.242,VALID,0,VALID,100,VALID,-0.118866,VALID,19.4156,VALID,241,VALID,0.740278,
2004-06-26, 03:12:00,VALID,917.24,VALID,0,VALID,100,VALID,-0.101885,VALID,19.4,VALID,228,VALID,0.961143,
2004-06-26, 03:13:00,VALID,917.245,VALID,0,VALID,100,VALID,-0.101885,VALID,19.3672,VALID,230,VALID,0.91061,
2004-06-26, 03:14:00,VALID,917.233,VALID,0,VALID,100,VALID,-0.0679233,VALID,19.3737,VALID,210,VALID,0.450945,
2004-06-26, 03:15:00,VALID,917.209,VALID,0,VALID,100,VALID,-0.0849042,VALID,19.3578,VALID,252,VALID,0.833394,
2004-06-26, 03:16:00,VALID,917.204,VALID,0,VALID,100,VALID,-0.0849042,VALID,19.3384,VALID,240,VALID,0.35902,
2004-06-26, 03:17:00,VALID,917.193,VALID,0,VALID,100,VALID,-0.0849042,VALID,19.3252,VALID,230,VALID,0.339648,
2004-06-26, 03:18:00,VALID,917.19,VALID,0,VALID,100,VALID,-0.101885,VALID,19.3414,VALID,251,VALID,0.192188,
2004-06-26, 03:19:00,VALID,917.186,VALID,0,VALID,100,VALID,-0.0679233,VALID,19.3744,VALID,329,VALID,0.511628,
2004-06-26, 03:20:00,VALID,917.182,VALID,0,VALID,100,VALID,-0.101885,VALID,19.3836,VALID,351,VALID,0.673399,
2004-06-26, 03:21:00,VALID,917.163,VALID,0,VALID,100,VALID,-0.0169808,VALID,19.3762,VALID,15,VALID,0.566497,
2004-06-26, 03:22:00,VALID,917.164,VALID,0,VALID,100,VALID,0.0169808,VALID,19.3826,VALID,49,VALID,0.889898,
2004-06-26, 03:23:00,VALID,917.16,VALID,0,VALID,100,VALID,0,VALID,19.3695,VALID,49,VALID,0.971112,
2004-06-26, 03:24:00,VALID,917.14,VALID,0,VALID,100,VALID,0,VALID,19.3791,VALID,53,VALID,0.814499,
2004-06-26, 03:25:00,VALID,917.12,VALID,0,VALID,100,VALID,0,VALID,19.3992,VALID,54,VALID,0.899038,
2004-06-26, 03:26:00,VALID,917.118,VALID,0,VALID,100,VALID,0.0169808,VALID,19.3787,VALID,59,VALID,0.783984,
2004-06-26, 03:27:00,VALID,917.114,VALID,0,VALID,100,VALID,0,VALID,19.369,VALID,74,VALID,1.02557,
2004-06-26, 03:28:00,VALID,917.108,VALID,0,VALID,100,VALID,0,VALID,19.3759,VALID,83,VALID,0.776367,
2004-06-26, 03:29:00,VALID,917.108,VALID,0,VALID,100,VALID,0.0339617,VALID,19.3632,VALID,90,VALID,0.628196,
2004-06-26, 03:30:00,VALID,917.111,VALID,0,VALID,100,VALID,0.0169808,VALID,19.3603,VALID,83,VALID,0.686592,
2004-06-26, 03:31:00,VALID,917.098,VALID,0,VALID,100,VALID,0.0169808,VALID,19.3498,VALID,96,VALID,0.836496,
2004-06-26, 03:32:00,VALID,917.106,VALID,0,VALID,100,VALID,0.0169808,VALID,19.3501,VALID,101,VALID,0.714026,
2004-06-26, 03:33:00,VALID,917.098,VALID,0,VALID,100,VALID,0,VALID,19.3409,VALID,113,VALID,0.488917,
2004-06-26, 03:34:00,VALID,917.077,VALID,0,VALID,100,VALID,0.0169808,VALID,19.3367,VALID,113,VALID,0.538132,
2004-06-26, 03:35:00,VALID,917.052,VALID,0,VALID,100,VALID,0,VALID,19.3498,VALID,123,VALID,0.795422,
2004-06-26, 03:36:00,VALID,917.029,VALID,0,VALID,100,VALID,-0.0679233,VALID,19.3674,VALID,140,VALID,0.845424,
2004-06-26, 03:37:00,VALID,916.996,VALID,0,VALID,100,VALID,-0.0849042,VALID,19.3612,VALID,145,VALID,0.928544,
2004-06-26, 03:38:00,VALID,916.99,VALID,0,VALID,100,VALID,-0.101885,VALID,19.3582,VALID,137,VALID,0.737674,
2004-06-26, 03:39:00,VALID,916.997,VALID,0,VALID,100,VALID,-0.0679233,VALID,19.3384,VALID,141,VALID,0.447852,
2004-06-26, 03:40:00,VALID,916.998,VALID,0,VALID,100,VALID,-0.0679233,VALID,19.355,VALID,141,VALID,0.0375744,